Flag for Germany Weather past 2 weeks in Potsdam, Brandenburg, Germany

Now
75 °F

Partly sunny.


Feels Like: 78 °F
Forecast: 57 / 81 °F
Wind: 3 mph from North

Location: Potsdam

Current Time: Jul 31, 2014 at 3:36:46 PM

Latest Report: Jul 31, 2014 at 3:00 PM


Visibility: 31 mi

Pressure: 29.96 "Hg

Humidity: 56%

Dew point: 58 °F

Location of PotsdamLocation

Historic Weather in Potsdam — Graph

°F

Potsdam temperature yesterday

Maximum temperature yesterday: 76 °F (at 2:00 PM)
Minimum temperature yesterday: 67 °F (at 10:00 PM)
Average temperature yesterday: 69 °F

Past Weeks' High & Low Weather Summary

 TemperatureHumidityPressure
High93 °F (Jul 20, 4:00 PM)99% (Jul 26, 3:00 AM)30.19 "Hg (Jul 26, 3:00 AM)
Low60 °F (Jul 31, 6:00 AM)24% (Jul 20, 4:00 PM)29.68 "Hg (Jul 29, 4:00 PM)
Average72 °F72%29.95 "Hg
* Reported Jul 16 2:00 PM — Jul 31 2:00 PM, Potsdam, Weather by CustomWeather, © 2014

Note: Actual official high and low records may vary slightly from our data, if they occured in-between our weather recording intervals... More about our weather records

Advertising

Potsdam weather history for previous 24 hours

 ConditionsComfort  
Time TempWeatherWind HumidityBarometerVisibility
2:00 PM
Jul 31
74 °FPartly sunny.5 mph52%29.96 "Hg28 mi
1:00 PM72 °FPartly sunny.3 mph62%29.97 "Hg28 mi
12:00 PM69 °FPartly sunny.5 mph66%29.97 "Hg28 mi
11:00 AM69 °FPartly sunny.5 mph65%29.97 "Hg28 mi
10:00 AM67 °FPartly sunny.5 mph77%29.96 "Hg28 mi
9:00 AM65 °FScattered clouds.5 mph78%29.96 "Hg28 mi
8:00 AM62 °FPassing clouds.5 mph87%29.95 "Hg19 mi
7:00 AM60 °FPassing clouds.5 mph92%29.94 "Hg16 mi
6:00 AM60 °FPassing clouds.6 mph92%29.93 "Hg16 mi
5:00 AM62 °FPassing clouds.6 mph89%29.90 "Hg22 mi
4:00 AM63 °FOvercast.6 mph85%29.90 "Hg19 mi
3:00 AM65 °FOvercast.6 mph83%29.89 "Hg19 mi
2:00 AM65 °FOvercast.6 mph87%29.88 "Hg17 mi
1:00 AM65 °FOvercast.6 mph91%29.86 "Hg17 mi
12:00 AM66 °FOvercast.5 mph95%29.86 "Hg16 mi
11:00 PM
Jul 30
67 °FOvercast.6 mph95%29.85 "Hg19 mi
10:00 PM67 °FOvercast.3 mph90%29.84 "Hg19 mi
9:00 PM67 °FOvercast.5 mph86%29.83 "Hg19 mi
8:00 PM68 °FOvercast.5 mph88%29.80 "Hg22 mi
7:00 PM69 °FOvercast.7 mph87%29.78 "Hg22 mi
6:00 PM69 °FOvercast.6 mph88%29.78 "Hg22 mi
5:00 PM70 °FLow clouds.7 mph90%29.76 "Hg9 mi
4:00 PM71 °FOvercast.7 mph88%29.75 "Hg10 mi
3:00 PM73 °FThunderstorms. Overcast.5 mph91%29.74 "Hg11 mi
Weather by CustomWeather, © 2014

See weather overviewHow to use our weather pages